View from above orbital plane
|
View from above satellite
|
Ground track
|
The orbit data is extracted from the following two-line orbital elements,
1 00046U 60007B 13141.58751517 .00000419 00000-0 10746-3 0 3698
2 00046 066.6904 181.0021 0224060 256.2320 101.3760 14.47005464764842
| Epoch (UTC): | 21 May 2013 14:06:01 |
| Eccentricity: | 0.0224060 |
| inclination: | 66.6904° |
| perigee height: | 576 km |
| apogee height: | 895 km |
| right ascension of ascending node: | 181.0021° |
| argument of perigee: | 256.2320° |
| revolutions per day: | 14.47005464 |
| mean anomaly at epoch: | 101.3760° |
| orbit number at epoch: | 76484 |
The dashed part of the orbit path shows where the satellite is in the earth's shadow,
|
|